Time,TemperatureF,DewpointF,PressureIn,WindDirection,WindDirectionDegrees,WindSpeedMPH,WindSpeedGustMPH,Humidity,HourlyPrecipIn,Conditions,Clouds,dailyrainin,SoftwareType,DateUTC
2013-07-29 00:01:00,66.7,63.1,28.30,West,270,2.0,5.0,88,0.00,,,0.34,meteohub,2013-07-29 04:01:00,
2013-07-29 00:02:00,66.7,63.1,28.30,East,90,2.0,5.0,88,0.00,,,0.34,meteohub,2013-07-29 04:02:00,
2013-07-29 00:03:00,66.7,63.1,28.30,North,0,3.0,5.0,88,0.00,,,0.34,meteohub,2013-07-29 04:03:00,
2013-07-29 00:05:00,66.7,62.8,28.30,South,180,1.0,4.0,87,0.00,,,0.00,meteohub,2013-07-29 04:05:00,
2013-07-29 00:11:00,66.7,62.8,28.30,SSE,158,2.0,4.0,87,0.00,,,0.00,meteohub,2013-07-29 04:11:00,
2013-07-29 00:16:00,66.9,63.0,28.30,South,180,2.0,4.0,87,0.00,,,0.00,meteohub,2013-07-29 04:16:00,
2013-07-29 00:21:00,67.1,62.8,28.30,East,90,2.0,4.0,86,0.00,,,0.00,meteohub,2013-07-29 04:21:00,
2013-07-29 00:26:00,67.3,62.6,28.30,East,90,4.0,4.0,85,0.00,,,0.00,meteohub,2013-07-29 04:26:00,
2013-07-29 00:31:00,67.8,62.4,28.30,SW,225,4.0,4.0,83,0.00,,,0.00,meteohub,2013-07-29 04:31:00,
2013-07-29 00:36:00,68.0,62.2,28.31,SE,135,2.0,4.0,82,0.00,,,0.00,meteohub,2013-07-29 04:36:00,
2013-07-29 00:42:00,68.2,62.1,28.31,North,0,3.0,4.0,81,0.00,,,0.00,meteohub,2013-07-29 04:42:00,
2013-07-29 00:47:00,68.0,61.9,28.31,NNW,338,4.0,7.0,81,0.00,,,0.00,meteohub,2013-07-29 04:47:00,
2013-07-29 00:52:00,67.5,62.1,28.31,South,180,2.0,7.0,83,0.00,,,0.00,meteohub,2013-07-29 04:52:00,
2013-07-29 00:57:00,67.3,61.9,28.31,East,90,3.0,7.0,83,0.00,,,0.00,meteohub,2013-07-29 04:57:00,
2013-07-29 01:02:00,66.9,61.9,28.31,SE,135,2.0,7.0,84,0.00,,,0.00,meteohub,2013-07-29 05:02:00,
2013-07-29 01:07:00,66.9,61.9,28.32,SW,225,0.0,4.0,84,0.00,,,0.00,meteohub,2013-07-29 05:07:00,
2013-07-29 01:12:00,67.1,62.1,28.31,ENE,68,3.0,4.0,84,0.00,,,0.00,meteohub,2013-07-29 05:12:00,
2013-07-29 01:17:00,67.1,61.7,28.32,SW,225,2.0,4.0,83,0.00,,,0.00,meteohub,2013-07-29 05:17:00,
2013-07-29 01:22:00,66.9,61.5,28.31,South,180,2.0,4.0,83,0.00,,,0.00,meteohub,2013-07-29 05:22:00,
2013-07-29 01:27:00,66.6,61.5,28.31,SW,225,2.0,4.0,84,0.00,,,0.00,meteohub,2013-07-29 05:27:00,
2013-07-29 01:33:00,66.2,61.2,28.30,SW,225,1.0,4.0,84,0.00,,,0.00,meteohub,2013-07-29 05:33:00,
2013-07-29 01:38:00,65.8,61.9,28.30,East,90,0.0,2.0,87,0.00,,,0.00,meteohub,2013-07-29 05:38:00,
2013-07-29 01:43:00,65.3,61.7,28.30,West,270,2.0,2.0,88,0.00,,,0.00,meteohub,2013-07-29 05:43:00,
2013-07-29 01:48:00,64.9,61.3,28.30,SW,225,1.0,2.0,88,0.00,,,0.00,meteohub,2013-07-29 05:48:00,
2013-07-29 01:53:00,64.6,61.3,28.30,NW,315,1.0,2.0,89,0.00,,,0.00,meteohub,2013-07-29 05:53:00,
2013-07-29 01:58:00,64.4,61.3,28.30,SE,135,2.0,2.0,90,0.00,,,0.00,meteohub,2013-07-29 05:58:00,
2013-07-29 02:04:00,64.0,61.0,28.30,SE,135,2.0,2.0,90,0.00,,,0.00,meteohub,2013-07-29 06:04:00,
2013-07-29 02:09:00,63.9,60.8,28.31,SE,135,2.0,2.0,90,0.00,,,0.00,meteohub,2013-07-29 06:09:00,
2013-07-29 02:14:00,63.7,61.0,28.30,NW,315,0.0,3.0,91,0.00,,,0.00,meteohub,2013-07-29 06:14:00,
2013-07-29 02:19:00,63.3,60.6,28.31,NE,45,1.0,3.0,91,0.00,,,0.00,meteohub,2013-07-29 06:19:00,
2013-07-29 02:24:00,63.1,60.4,28.30,SW,225,2.0,3.0,91,0.00,,,0.00,meteohub,2013-07-29 06:24:00,
2013-07-29 02:29:00,62.8,60.4,28.30,West,270,2.0,2.0,92,0.00,,,0.00,meteohub,2013-07-29 06:29:00,
2013-07-29 02:34:00,62.8,60.4,28.30,SE,135,0.0,3.0,92,0.00,,,0.00,meteohub,2013-07-29 06:34:00,
2013-07-29 02:39:00,62.6,60.3,28.31,SE,135,0.0,3.0,92,0.00,,,0.00,meteohub,2013-07-29 06:39:00,
2013-07-29 02:45:00,62.6,60.6,28.31,NE,45,0.0,3.0,93,0.00,,,0.00,meteohub,2013-07-29 06:45:00,
2013-07-29 02:50:00,62.2,60.4,28.30,East,90,2.0,2.0,94,0.00,,,0.00,meteohub,2013-07-29 06:50:00,
2013-07-29 02:55:00,62.1,60.3,28.30,SW,225,2.0,3.0,94,0.00,,,0.00,meteohub,2013-07-29 06:55:00,
2013-07-29 03:00:00,62.1,60.3,28.31,NW,315,1.0,3.0,94,0.00,,,0.00,meteohub,2013-07-29 07:00:00,
2013-07-29 03:05:00,62.1,60.3,28.31,South,180,0.0,2.0,94,0.00,,,0.00,meteohub,2013-07-29 07:05:00,
2013-07-29 03:11:00,61.9,60.4,28.31,NE,45,0.0,2.0,95,0.00,,,0.00,meteohub,2013-07-29 07:11:00,
2013-07-29 03:16:00,61.7,60.3,28.32,NE,45,1.0,2.0,95,0.00,,,0.00,meteohub,2013-07-29 07:16:00,
2013-07-29 03:21:00,61.7,60.3,28.31,West,270,0.0,2.0,95,0.00,,,0.00,meteohub,2013-07-29 07:21:00,
2013-07-29 03:26:00,61.5,60.1,28.31,SE,135,0.0,2.0,95,0.00,,,0.00,meteohub,2013-07-29 07:26:00,
2013-07-29 03:32:00,61.5,60.1,28.31,West,270,0.0,2.0,95,0.00,,,0.00,meteohub,2013-07-29 07:32:00,
2013-07-29 03:37:00,61.3,59.9,28.32,West,270,0.0,2.0,95,0.00,,,0.00,meteohub,2013-07-29 07:37:00,
2013-07-29 03:42:00,61.3,59.9,28.32,North,0,0.0,0.0,95,0.00,,,0.00,meteohub,2013-07-29 07:42:00,
2013-07-29 03:47:00,61.3,59.9,28.32,North,0,0.0,2.0,95,0.00,,,0.00,meteohub,2013-07-29 07:47:00,
2013-07-29 03:52:00,61.2,59.7,28.32,NE,45,0.0,2.0,95,0.00,,,0.00,meteohub,2013-07-29 07:52:00,
2013-07-29 03:57:00,61.2,59.7,28.32,North,0,2.0,2.0,95,0.00,,,0.00,meteohub,2013-07-29 07:57:00,
2013-07-29 04:02:00,61.0,59.5,28.32,South,180,0.0,2.0,95,0.00,,,0.00,meteohub,2013-07-29 08:02:00,
2013-07-29 04:08:00,61.0,59.9,28.31,South,180,1.0,2.0,96,0.00,,,0.00,meteohub,2013-07-29 08:08:00,
2013-07-29 04:13:00,61.0,59.9,28.32,South,180,0.0,2.0,96,0.00,,,0.00,meteohub,2013-07-29 08:13:00,
2013-07-29 04:18:00,60.8,59.7,28.32,North,0,0.0,2.0,96,0.00,,,0.00,meteohub,2013-07-29 08:18:00,
2013-07-29 04:23:00,60.8,59.7,28.33,East,90,2.0,2.0,96,0.00,,,0.00,meteohub,2013-07-29 08:23:00,
2013-07-29 04:28:00,60.8,59.7,28.33,South,180,0.0,2.0,96,0.00,,,0.00,meteohub,2013-07-29 08:28:00,
2013-07-29 04:34:00,60.8,59.7,28.32,SE,135,0.0,2.0,96,0.00,,,0.00,meteohub,2013-07-29 08:34:00,
2013-07-29 04:39:00,60.8,59.7,28.32,SSE,158,1.0,2.0,96,0.00,,,0.00,meteohub,2013-07-29 08:39:00,
2013-07-29 04:44:00,60.8,59.7,28.32,West,270,0.0,2.0,96,0.00,,,0.00,meteohub,2013-07-29 08:44:00,
2013-07-29 04:49:00,60.8,59.7,28.32,West,270,0.0,2.0,96,0.00,,,0.00,meteohub,2013-07-29 08:49:00,
2013-07-29 04:54:00,60.6,59.7,28.32,North,0,0.0,2.0,97,0.00,,,0.00,meteohub,2013-07-29 08:54:00,
2013-07-29 04:59:00,60.4,59.9,28.32,West,270,0.0,1.0,98,0.00,,,0.00,meteohub,2013-07-29 08:59:00,
2013-07-29 05:04:00,60.4,59.9,28.32,South,180,0.0,0.0,98,0.00,,,0.00,meteohub,2013-07-29 09:04:00,
2013-07-29 05:10:00,60.4,59.9,28.32,East,90,2.0,2.0,98,0.00,,,0.00,meteohub,2013-07-29 09:10:00,
2013-07-29 05:15:00,60.3,59.7,28.33,NW,315,1.0,2.0,98,0.00,,,0.00,meteohub,2013-07-29 09:15:00,
2013-07-29 05:20:00,60.3,59.7,28.32,SW,225,1.0,2.0,98,0.00,,,0.00,meteohub,2013-07-29 09:20:00,
2013-07-29 05:25:00,60.1,59.5,28.33,SW,225,0.0,2.0,98,0.00,,,0.00,meteohub,2013-07-29 09:25:00,
2013-07-29 05:31:00,60.1,59.5,28.33,SW,225,0.0,2.0,98,0.00,,,0.00,meteohub,2013-07-29 09:31:00,
2013-07-29 05:36:00,60.1,59.5,28.33,NE,45,0.0,1.0,98,0.00,,,0.00,meteohub,2013-07-29 09:36:00,
2013-07-29 05:41:00,59.9,59.4,28.33,NE,45,0.0,1.0,98,0.00,,,0.00,meteohub,2013-07-29 09:41:00,
2013-07-29 05:46:00,59.9,59.4,28.34,NE,45,0.0,0.0,98,0.00,,,0.00,meteohub,2013-07-29 09:46:00,
2013-07-29 05:52:00,59.9,59.4,28.33,NE,45,0.0,0.0,98,0.00,,,0.00,meteohub,2013-07-29 09:52:00,
2013-07-29 05:57:00,59.9,59.4,28.33,West,270,0.0,0.0,98,0.00,,,0.00,meteohub,2013-07-29 09:57:00,
2013-07-29 06:02:00,59.9,59.4,28.34,North,0,0.0,1.0,98,0.00,,,0.00,meteohub,2013-07-29 10:02:00,
2013-07-29 06:07:00,59.9,59.4,28.34,North,0,0.0,2.0,98,0.00,,,0.00,meteohub,2013-07-29 10:07:00,
2013-07-29 06:12:00,60.1,59.5,28.33,NE,45,2.0,2.0,98,0.00,,,0.00,meteohub,2013-07-29 10:12:00,
2013-07-29 06:17:00,60.1,59.5,28.34,NE,45,1.0,2.0,98,0.00,,,0.00,meteohub,2013-07-29 10:17:00,
2013-07-29 06:23:00,59.9,59.4,28.34,NE,45,2.0,2.0,98,0.00,,,0.00,meteohub,2013-07-29 10:23:00,
2013-07-29 06:28:00,59.9,59.4,28.34,NE,45,2.0,2.0,98,0.00,,,0.00,meteohub,2013-07-29 10:28:00,
2013-07-29 06:33:00,59.9,59.4,28.35,NE,45,2.0,2.0,98,0.00,,,0.00,meteohub,2013-07-29 10:33:00,
2013-07-29 06:39:00,60.1,59.5,28.35,NE,45,1.0,2.0,98,0.00,,,0.00,meteohub,2013-07-29 10:39:00,
2013-07-29 06:44:00,60.1,59.7,28.35,NE,45,4.0,4.0,99,0.00,,,0.00,meteohub,2013-07-29 10:44:00,
2013-07-29 06:50:00,60.3,59.9,28.34,NE,45,2.0,4.0,99,0.00,,,0.00,meteohub,2013-07-29 10:50:00,
2013-07-29 06:55:00,60.4,60.1,28.35,NW,315,1.0,4.0,99,0.00,,,0.00,meteohub,2013-07-29 10:55:00,
2013-07-29 07:01:00,60.8,60.3,28.35,North,0,2.0,4.0,98,0.00,,,0.00,meteohub,2013-07-29 11:01:00,
2013-07-29 07:07:00,60.8,60.3,28.35,North,0,1.0,4.0,98,0.00,,,0.00,meteohub,2013-07-29 11:07:00,
2013-07-29 07:12:00,61.0,60.4,28.35,NW,315,2.0,2.0,98,0.00,,,0.00,meteohub,2013-07-29 11:12:00,
2013-07-29 07:17:00,61.2,60.6,28.35,NE,45,2.0,2.0,98,0.00,,,0.00,meteohub,2013-07-29 11:17:00,
2013-07-29 07:22:00,61.3,60.8,28.35,North,0,2.0,2.0,98,0.00,,,0.00,meteohub,2013-07-29 11:22:00,
2013-07-29 07:28:00,61.5,61.0,28.35,North,0,2.0,3.0,98,0.00,,,0.00,meteohub,2013-07-29 11:28:00,
2013-07-29 07:33:00,61.7,61.2,28.35,North,0,2.0,3.0,98,0.00,,,0.00,meteohub,2013-07-29 11:33:00,
2013-07-29 07:38:00,62.1,61.5,28.35,North,0,2.0,3.0,98,0.00,,,0.00,meteohub,2013-07-29 11:38:00,
2013-07-29 07:43:00,62.2,61.7,28.35,West,270,2.0,2.0,98,0.00,,,0.00,meteohub,2013-07-29 11:43:00,
2013-07-29 07:49:00,62.2,61.7,28.35,SW,225,2.0,2.0,98,0.00,,,0.00,meteohub,2013-07-29 11:49:00,
2013-07-29 07:54:00,62.4,61.9,28.36,NW,315,1.0,2.0,98,0.00,,,0.00,meteohub,2013-07-29 11:54:00,
2013-07-29 07:59:00,62.6,61.7,28.36,NNW,338,2.0,2.0,97,0.00,,,0.00,meteohub,2013-07-29 11:59:00,
2013-07-29 08:04:00,62.6,61.7,28.36,West,270,2.0,3.0,97,0.00,,,0.00,meteohub,2013-07-29 12:04:00,
2013-07-29 08:10:00,62.8,61.9,28.36,SW,225,3.0,3.0,97,0.00,,,0.00,meteohub,2013-07-29 12:10:00,
2013-07-29 08:15:00,63.0,62.1,28.36,NW,315,2.0,3.0,97,0.00,,,0.00,meteohub,2013-07-29 12:15:00,
2013-07-29 08:21:00,63.3,62.4,28.36,North,0,2.0,5.0,97,0.00,,,0.00,meteohub,2013-07-29 12:21:00,
2013-07-29 08:26:00,63.7,62.8,28.36,North,0,5.0,5.0,97,0.00,,,0.00,meteohub,2013-07-29 12:26:00,
2013-07-29 08:32:00,64.0,63.1,28.36,West,270,2.0,5.0,97,0.00,,,0.00,meteohub,2013-07-29 12:32:00,
2013-07-29 08:37:00,64.8,63.9,28.37,NE,45,3.0,6.0,97,0.00,,,0.00,meteohub,2013-07-29 12:37:00,
2013-07-29 08:42:00,65.3,64.4,28.36,NNE,23,5.0,6.0,97,0.00,,,0.00,meteohub,2013-07-29 12:42:00,
2013-07-29 08:47:00,67.1,64.4,28.36,North,0,2.0,6.0,91,0.00,,,0.00,meteohub,2013-07-29 12:47:00,
2013-07-29 08:52:00,68.0,63.3,28.37,North,0,3.0,5.0,85,0.00,,,0.00,meteohub,2013-07-29 12:52:00,
2013-07-29 08:57:00,67.3,60.6,28.37,North,0,5.0,6.0,79,0.00,,,0.00,meteohub,2013-07-29 12:57:00,
2013-07-29 09:03:00,66.6,59.9,28.37,North,0,4.0,7.0,79,0.00,,,0.00,meteohub,2013-07-29 13:03:00,
2013-07-29 09:09:00,67.8,61.0,28.36,North,0,4.0,7.0,79,0.00,,,0.00,meteohub,2013-07-29 13:09:00,
2013-07-29 09:14:00,68.7,60.1,28.37,NW,315,2.0,7.0,74,0.00,,,0.00,meteohub,2013-07-29 13:14:00,
2013-07-29 09:20:00,69.4,58.8,28.37,East,90,2.0,5.0,69,0.00,,,0.00,meteohub,2013-07-29 13:20:00,
2013-07-29 09:25:00,69.8,57.0,28.37,NE,45,2.0,4.0,64,0.00,,,0.00,meteohub,2013-07-29 13:25:00,
2013-07-29 09:30:00,70.5,58.6,28.37,North,0,3.0,4.0,66,0.00,,,0.00,meteohub,2013-07-29 13:30:00,
2013-07-29 09:36:00,70.7,58.3,28.37,NE,45,4.0,4.0,65,0.00,,,0.00,meteohub,2013-07-29 13:36:00,
2013-07-29 09:41:00,70.9,57.7,28.38,NE,45,3.0,4.0,63,0.00,,,0.00,meteohub,2013-07-29 13:41:00,
2013-07-29 09:47:00,70.7,57.0,28.38,NNE,23,4.0,5.0,62,0.00,,,0.00,meteohub,2013-07-29 13:47:00,
2013-07-29 09:52:00,71.2,57.6,28.38,ENE,68,4.0,6.0,62,0.00,,,0.00,meteohub,2013-07-29 13:52:00,
2013-07-29 09:57:00,71.2,57.6,28.38,North,0,6.0,6.0,62,0.00,,,0.00,meteohub,2013-07-29 13:57:00,
2013-07-29 10:02:00,70.7,56.7,28.38,ENE,68,5.0,6.0,61,0.00,,,0.00,meteohub,2013-07-29 14:02:00,
2013-07-29 10:07:00,70.7,56.7,28.38,ENE,68,5.0,6.0,61,0.00,,,0.00,meteohub,2013-07-29 14:07:00,
2013-07-29 10:12:00,69.6,56.5,28.38,North,0,3.0,6.0,63,0.00,,,0.00,meteohub,2013-07-29 14:12:00,
2013-07-29 10:17:00,70.5,56.5,28.38,West,270,2.0,5.0,61,0.00,,,0.00,meteohub,2013-07-29 14:17:00,
2013-07-29 10:22:00,70.5,57.4,28.38,NE,45,4.0,5.0,63,0.00,,,0.00,meteohub,2013-07-29 14:22:00,
2013-07-29 10:27:00,70.0,56.8,28.37,North,0,1.0,4.0,63,0.00,,,0.00,meteohub,2013-07-29 14:27:00,
2013-07-29 10:33:00,70.0,56.8,28.37,North,0,1.0,4.0,63,0.00,,,0.00,meteohub,2013-07-29 14:33:00,
2013-07-29 10:38:00,71.6,57.0,28.38,NE,45,3.0,4.0,60,0.00,,,0.00,meteohub,2013-07-29 14:38:00,
2013-07-29 10:43:00,72.0,56.3,28.38,SE,135,2.0,3.0,58,0.00,,,0.00,meteohub,2013-07-29 14:43:00,
2013-07-29 10:48:00,71.4,56.8,28.37,North,0,2.0,4.0,60,0.00,,,0.00,meteohub,2013-07-29 14:48:00,
2013-07-29 10:53:00,70.9,56.8,28.37,West,270,1.0,4.0,61,0.00,,,0.00,meteohub,2013-07-29 14:53:00,
2013-07-29 10:59:00,70.7,57.0,28.37,SE,135,1.0,4.0,62,0.00,,,0.00,meteohub,2013-07-29 14:59:00,
2013-07-29 11:04:00,70.5,57.4,28.37,NE,45,3.0,4.0,63,0.00,,,0.00,meteohub,2013-07-29 15:04:00,
2013-07-29 11:10:00,70.7,57.6,28.37,SE,135,2.0,4.0,63,0.00,,,0.00,meteohub,2013-07-29 15:10:00,
2013-07-29 11:16:00,70.9,58.1,28.37,East,90,1.0,4.0,64,0.00,,,0.00,meteohub,2013-07-29 15:16:00,
2013-07-29 11:22:00,70.9,58.1,28.37,East,90,1.0,3.0,64,0.00,,,0.00,meteohub,2013-07-29 15:22:00,
2013-07-29 11:27:00,73.6,57.4,28.36,NE,45,2.0,2.0,57,0.00,,,0.00,meteohub,2013-07-29 15:27:00,
2013-07-29 11:32:00,72.7,57.9,28.36,North,0,2.0,4.0,60,0.00,,,0.00,meteohub,2013-07-29 15:32:00,
2013-07-29 11:37:00,72.7,58.8,28.36,North,0,4.0,4.0,62,0.00,,,0.00,meteohub,2013-07-29 15:37:00,
2013-07-29 11:42:00,72.1,57.9,28.36,North,0,2.0,4.0,61,0.00,,,0.00,meteohub,2013-07-29 15:42:00,
2013-07-29 11:47:00,72.0,58.6,28.36,SW,225,2.0,4.0,63,0.00,,,0.00,meteohub,2013-07-29 15:47:00,
2013-07-29 11:52:00,71.8,58.5,28.36,West,270,0.0,4.0,63,0.00,,,0.00,meteohub,2013-07-29 15:52:00,
2013-07-29 11:58:00,71.4,58.1,28.37,West,270,2.0,2.0,63,0.00,,,0.00,meteohub,2013-07-29 15:58:00,
2013-07-29 12:03:00,71.4,58.6,28.37,ENE,68,2.0,2.0,64,0.00,,,0.00,meteohub,2013-07-29 16:03:00,
2013-07-29 12:09:00,71.1,59.2,28.36,East,90,4.0,4.0,66,0.00,,,0.00,meteohub,2013-07-29 16:09:00,
2013-07-29 12:14:00,71.1,58.6,28.36,ENE,68,3.0,5.0,65,0.00,,,0.00,meteohub,2013-07-29 16:14:00,
2013-07-29 12:20:00,72.1,59.4,28.36,SSW,203,4.0,5.0,64,0.00,,,0.00,meteohub,2013-07-29 16:20:00,
2013-07-29 12:26:00,72.9,58.6,28.36,SE,135,4.0,6.0,61,0.00,,,0.00,meteohub,2013-07-29 16:26:00,
2013-07-29 12:31:00,72.9,58.6,28.36,ENE,68,4.0,6.0,61,0.00,,,0.00,meteohub,2013-07-29 16:31:00,
2013-07-29 12:36:00,72.1,58.5,28.36,SE,135,2.0,5.0,62,0.00,,,0.00,meteohub,2013-07-29 16:36:00,
2013-07-29 12:42:00,71.4,58.1,28.37,East,90,2.0,5.0,63,0.00,,,0.00,meteohub,2013-07-29 16:42:00,
2013-07-29 12:47:00,71.4,58.6,28.36,ENE,68,3.0,4.0,64,0.00,,,0.00,meteohub,2013-07-29 16:47:00,
2013-07-29 12:52:00,71.1,58.6,28.36,NE,45,4.0,4.0,65,0.00,,,0.00,meteohub,2013-07-29 16:52:00,
2013-07-29 12:58:00,70.7,57.9,28.36,North,0,3.0,5.0,64,0.00,,,0.00,meteohub,2013-07-29 16:58:00,
2013-07-29 13:03:00,70.7,58.8,28.36,NW,315,2.0,5.0,66,0.00,,,0.00,meteohub,2013-07-29 17:03:00,
2013-07-29 13:09:00,71.6,60.4,28.36,West,270,3.0,5.0,68,0.00,,,0.00,meteohub,2013-07-29 17:09:00,
2013-07-29 13:14:00,73.6,61.5,28.36,NW,315,4.0,4.0,66,0.00,,,0.00,meteohub,2013-07-29 17:14:00,
2013-07-29 13:19:00,74.1,59.4,28.36,West,270,3.0,5.0,60,0.00,,,0.00,meteohub,2013-07-29 17:19:00,
2013-07-29 13:25:00,73.8,58.5,28.36,NW,315,2.0,5.0,59,0.00,,,0.00,meteohub,2013-07-29 17:25:00,
2013-07-29 13:30:00,73.4,58.6,28.36,East,90,2.0,5.0,60,0.00,,,0.00,meteohub,2013-07-29 17:30:00,
2013-07-29 13:35:00,72.9,59.5,28.36,North,0,8.0,8.0,63,0.00,,,0.00,meteohub,2013-07-29 17:35:00,
2013-07-29 13:40:00,72.1,58.5,28.36,North,0,2.0,8.0,62,0.00,,,0.00,meteohub,2013-07-29 17:40:00,
2013-07-29 13:46:00,72.3,59.5,28.36,North,0,2.0,8.0,64,0.00,,,0.00,meteohub,2013-07-29 17:46:00,
2013-07-29 13:51:00,72.3,58.1,28.36,East,90,4.0,8.0,61,0.00,,,0.00,meteohub,2013-07-29 17:51:00,
2013-07-29 13:56:00,71.8,57.6,28.35,East,90,2.0,4.0,61,0.00,,,0.00,meteohub,2013-07-29 17:56:00,
2013-07-29 14:01:00,71.4,57.2,28.36,North,0,2.0,4.0,61,0.00,,,0.00,meteohub,2013-07-29 18:01:00,
2013-07-29 14:06:00,71.4,57.2,28.36,North,0,2.0,4.0,61,0.00,,,0.00,meteohub,2013-07-29 18:06:00,
2013-07-29 14:11:00,71.8,57.2,28.35,NE,45,2.0,4.0,60,0.00,,,0.00,meteohub,2013-07-29 18:11:00,
2013-07-29 14:17:00,72.0,58.3,28.35,NE,45,2.0,4.0,62,0.00,,,0.00,meteohub,2013-07-29 18:17:00,
2013-07-29 14:22:00,72.1,59.4,28.36,North,0,3.0,4.0,64,0.00,,,0.00,meteohub,2013-07-29 18:22:00,
2013-07-29 14:27:00,73.4,59.2,28.36,NE,45,4.0,4.0,61,0.00,,,0.00,meteohub,2013-07-29 18:27:00,
2013-07-29 14:32:00,74.7,58.8,28.35,North,0,4.0,4.0,58,0.00,,,0.00,meteohub,2013-07-29 18:32:00,
2013-07-29 14:37:00,76.1,58.8,28.35,NE,45,3.0,4.0,55,0.00,,,0.00,meteohub,2013-07-29 18:37:00,
2013-07-29 14:42:00,76.3,57.9,28.35,NE,45,8.0,8.0,53,0.00,,,0.00,meteohub,2013-07-29 18:42:00,
2013-07-29 14:47:00,76.1,59.2,28.35,NE,45,3.0,8.0,56,0.00,,,0.00,meteohub,2013-07-29 18:47:00,
2013-07-29 14:52:00,77.5,59.5,28.35,NE,45,2.0,8.0,54,0.00,,,0.00,meteohub,2013-07-29 18:52:00,
2013-07-29 14:58:00,77.5,59.0,28.35,NW,315,2.0,8.0,53,0.00,,,0.00,meteohub,2013-07-29 18:58:00,
2013-07-29 15:03:00,77.7,58.6,28.35,NNE,23,4.0,7.0,52,0.00,,,0.00,meteohub,2013-07-29 19:03:00,
2013-07-29 15:08:00,77.0,57.0,28.35,NE,45,4.0,7.0,50,0.00,,,0.00,meteohub,2013-07-29 19:08:00,
2013-07-29 15:13:00,76.6,57.7,28.35,North,0,3.0,7.0,52,0.00,,,0.00,meteohub,2013-07-29 19:13:00,
2013-07-29 15:18:00,76.8,57.9,28.35,NE,45,4.0,7.0,52,0.00,,,0.00,meteohub,2013-07-29 19:18:00,
2013-07-29 15:23:00,76.8,57.9,28.35,North,0,4.0,7.0,52,0.00,,,0.00,meteohub,2013-07-29 19:23:00,
2013-07-29 15:29:00,76.1,57.7,28.35,NW,315,2.0,7.0,53,0.00,,,0.00,meteohub,2013-07-29 19:29:00,
2013-07-29 15:34:00,75.4,56.5,28.35,North,0,2.0,5.0,52,0.00,,,0.00,meteohub,2013-07-29 19:34:00,
2013-07-29 15:39:00,74.7,57.9,28.35,West,270,2.0,5.0,56,0.00,,,0.00,meteohub,2013-07-29 19:39:00,
2013-07-29 15:44:00,74.7,59.4,28.35,North,0,1.0,4.0,59,0.00,,,0.00,meteohub,2013-07-29 19:44:00,
2013-07-29 15:50:00,74.5,59.2,28.36,SW,225,2.0,4.0,59,0.00,,,0.00,meteohub,2013-07-29 19:50:00,
2013-07-29 15:55:00,73.9,59.2,28.35,South,180,2.0,2.0,60,0.00,,,0.00,meteohub,2013-07-29 19:55:00,
2013-07-29 16:00:00,73.9,60.6,28.36,East,90,2.0,2.0,63,0.00,,,0.00,meteohub,2013-07-29 20:00:00,
2013-07-29 16:06:00,73.9,60.6,28.35,East,90,2.0,2.0,63,0.00,,,0.00,meteohub,2013-07-29 20:06:00,
2013-07-29 16:11:00,76.3,56.3,28.35,SW,225,3.0,4.0,50,0.00,,,0.00,meteohub,2013-07-29 20:11:00,
2013-07-29 16:17:00,76.8,52.0,28.35,NE,45,6.0,6.0,42,0.00,,,0.00,meteohub,2013-07-29 20:17:00,
2013-07-29 16:22:00,76.3,52.7,28.35,West,270,2.0,8.0,44,0.00,,,0.00,meteohub,2013-07-29 20:22:00,
2013-07-29 16:27:00,77.2,52.9,28.35,NE,45,3.0,8.0,43,0.00,,,0.00,meteohub,2013-07-29 20:27:00,
2013-07-29 16:32:00,77.9,52.9,28.35,SW,225,4.0,8.0,42,0.00,,,0.00,meteohub,2013-07-29 20:32:00,
2013-07-29 16:38:00,78.3,53.2,28.35,NW,315,3.0,5.0,42,0.00,,,0.00,meteohub,2013-07-29 20:38:00,
2013-07-29 16:43:00,77.4,51.8,28.35,North,0,2.0,5.0,41,0.00,,,0.00,meteohub,2013-07-29 20:43:00,
2013-07-29 16:48:00,77.5,53.2,28.35,NE,45,2.0,5.0,43,0.00,,,0.00,meteohub,2013-07-29 20:48:00,
2013-07-29 16:54:00,77.9,52.9,28.36,North,0,3.0,4.0,42,0.00,,,0.00,meteohub,2013-07-29 20:54:00,
2013-07-29 16:59:00,77.0,52.2,28.35,NE,45,4.0,4.0,42,0.00,,,0.00,meteohub,2013-07-29 20:59:00,
2013-07-29 17:04:00,77.0,50.9,28.35,North,0,4.0,5.0,40,0.00,,,0.00,meteohub,2013-07-29 21:04:00,
2013-07-29 17:10:00,76.6,49.8,28.35,NW,315,6.0,8.0,39,0.00,,,0.00,meteohub,2013-07-29 21:10:00,
2013-07-29 17:16:00,76.3,48.7,28.35,North,0,4.0,11.0,38,0.00,,,0.00,meteohub,2013-07-29 21:16:00,
2013-07-29 17:21:00,76.1,50.0,28.35,North,0,5.0,11.0,40,0.00,,,0.00,meteohub,2013-07-29 21:21:00,
2013-07-29 17:26:00,75.4,51.3,28.35,North,0,8.0,11.0,43,0.00,,,0.00,meteohub,2013-07-29 21:26:00,
2013-07-29 17:32:00,74.7,50.0,28.35,North,0,4.0,10.0,42,0.00,,,0.00,meteohub,2013-07-29 21:32:00,
2013-07-29 17:37:00,75.2,50.5,28.35,NE,45,2.0,10.0,42,0.00,,,0.00,meteohub,2013-07-29 21:37:00,
2013-07-29 17:42:00,75.7,51.6,28.35,South,180,5.0,10.0,43,0.00,,,0.00,meteohub,2013-07-29 21:42:00,
2013-07-29 17:47:00,75.6,50.9,28.36,NW,315,2.0,8.0,42,0.00,,,0.00,meteohub,2013-07-29 21:47:00,
2013-07-29 17:52:00,75.4,50.7,28.36,West,270,4.0,8.0,42,0.00,,,0.00,meteohub,2013-07-29 21:52:00,
2013-07-29 17:58:00,75.0,50.4,28.35,North,0,5.0,8.0,42,0.00,,,0.00,meteohub,2013-07-29 21:58:00,
2013-07-29 18:03:00,74.8,50.2,28.35,North,0,4.0,10.0,42,0.00,,,0.00,meteohub,2013-07-29 22:03:00,
2013-07-29 18:08:00,74.5,50.5,28.36,WNW,293,4.0,10.0,43,0.00,,,0.00,meteohub,2013-07-29 22:08:00,
2013-07-29 18:13:00,74.7,51.3,28.36,East,90,4.0,10.0,44,0.00,,,0.00,meteohub,2013-07-29 22:13:00,
2013-07-29 18:19:00,74.7,50.7,28.35,NE,45,6.0,6.0,43,0.00,,,0.00,meteohub,2013-07-29 22:19:00,
2013-07-29 18:24:00,73.9,50.7,28.36,NW,315,6.0,7.0,44,0.00,,,0.00,meteohub,2013-07-29 22:24:00,
2013-07-29 18:29:00,73.4,50.2,28.36,West,270,2.0,7.0,44,0.00,,,0.00,meteohub,2013-07-29 22:29:00,
2013-07-29 18:34:00,72.5,51.6,28.36,NE,45,4.0,7.0,48,0.00,,,0.00,meteohub,2013-07-29 22:34:00,
2013-07-29 18:40:00,71.8,51.1,28.36,NW,315,7.0,7.0,48,0.00,,,0.00,meteohub,2013-07-29 22:40:00,
2013-07-29 18:45:00,71.6,51.4,28.36,SW,225,2.0,7.0,49,0.00,,,0.00,meteohub,2013-07-29 22:45:00,
2013-07-29 18:50:00,71.1,52.5,28.36,SW,225,2.0,7.0,52,0.00,,,0.00,meteohub,2013-07-29 22:50:00,
2013-07-29 18:56:00,70.9,52.9,28.37,NNW,338,4.0,4.0,53,0.00,,,0.00,meteohub,2013-07-29 22:56:00,
2013-07-29 19:01:00,70.7,53.2,28.37,South,180,2.0,5.0,54,0.00,,,0.00,meteohub,2013-07-29 23:01:00,
2013-07-29 19:06:00,70.5,52.5,28.37,South,180,1.0,5.0,53,0.00,,,0.00,meteohub,2013-07-29 23:06:00,
2013-07-29 19:12:00,70.3,52.3,28.37,North,0,3.0,5.0,53,0.00,,,0.00,meteohub,2013-07-29 23:12:00,
2013-07-29 19:17:00,70.2,52.2,28.37,SW,225,1.0,5.0,53,0.00,,,0.00,meteohub,2013-07-29 23:17:00,
2013-07-29 19:22:00,69.8,52.9,28.38,SW,225,2.0,5.0,55,0.00,,,0.00,meteohub,2013-07-29 23:22:00,
2013-07-29 19:27:00,69.4,54.0,28.37,West,270,2.0,3.0,58,0.00,,,0.00,meteohub,2013-07-29 23:27:00,
2013-07-29 19:32:00,69.1,54.7,28.38,West,270,2.0,2.0,60,0.00,,,0.00,meteohub,2013-07-29 23:32:00,
2013-07-29 19:37:00,68.4,54.3,28.38,SW,225,2.0,2.0,61,0.00,,,0.00,meteohub,2013-07-29 23:37:00,
2013-07-29 19:43:00,68.0,54.0,28.38,SW,225,2.0,2.0,61,0.00,,,0.00,meteohub,2013-07-29 23:43:00,
2013-07-29 19:48:00,67.5,54.5,28.39,SW,225,0.0,2.0,63,0.00,,,0.00,meteohub,2013-07-29 23:48:00,
2013-07-29 19:53:00,67.1,54.1,28.39,SW,225,2.0,2.0,63,0.00,,,0.00,meteohub,2013-07-29 23:53:00,
2013-07-29 19:58:00,66.6,53.6,28.38,South,180,1.0,2.0,63,0.00,,,0.00,meteohub,2013-07-29 23:58:00,
2013-07-29 20:04:00,66.2,53.6,28.39,South,180,2.0,2.0,64,0.00,,,0.00,meteohub,2013-07-30 00:04:00,
2013-07-29 20:09:00,65.5,53.8,28.40,SW,225,0.0,2.0,66,0.00,,,0.00,meteohub,2013-07-30 00:09:00,
2013-07-29 20:14:00,65.1,54.0,28.40,East,90,0.0,2.0,67,0.00,,,0.00,meteohub,2013-07-30 00:14:00,
2013-07-29 20:19:00,64.6,53.8,28.40,South,180,0.0,2.0,68,0.00,,,0.00,meteohub,2013-07-30 00:19:00,
2013-07-29 20:25:00,64.2,53.8,28.40,South,180,0.0,1.0,69,0.00,,,0.00,meteohub,2013-07-30 00:25:00,
2013-07-29 20:30:00,63.9,54.0,28.40,South,180,0.0,0.0,70,0.00,,,0.00,meteohub,2013-07-30 00:30:00,
2013-07-29 20:35:00,63.5,54.0,28.40,South,180,0.0,0.0,71,0.00,,,0.00,meteohub,2013-07-30 00:35:00,
2013-07-29 20:41:00,63.1,54.0,28.40,East,90,0.0,0.0,72,0.00,,,0.00,meteohub,2013-07-30 00:41:00,
2013-07-29 20:46:00,62.8,54.3,28.41,East,90,1.0,2.0,74,0.00,,,0.00,meteohub,2013-07-30 00:46:00,
2013-07-29 20:52:00,62.4,54.7,28.41,SE,135,0.0,2.0,76,0.00,,,0.00,meteohub,2013-07-30 00:52:00,
2013-07-29 20:57:00,62.2,54.5,28.42,SE,135,0.0,2.0,76,0.00,,,0.00,meteohub,2013-07-30 00:57:00,
2013-07-29 21:03:00,61.9,54.9,28.42,SW,225,1.0,2.0,78,0.00,,,0.00,meteohub,2013-07-30 01:03:00,
2013-07-29 21:08:00,61.7,55.0,28.42,SW,225,0.0,2.0,79,0.00,,,0.00,meteohub,2013-07-30 01:08:00,
2013-07-29 21:13:00,61.5,54.9,28.43,South,180,0.0,2.0,79,0.00,,,0.00,meteohub,2013-07-30 01:13:00,
2013-07-29 21:18:00,61.3,55.0,28.43,East,90,0.0,1.0,80,0.00,,,0.00,meteohub,2013-07-30 01:18:00,
2013-07-29 21:23:00,61.2,55.2,28.43,SW,225,0.0,0.0,81,0.00,,,0.00,meteohub,2013-07-30 01:23:00,
2013-07-29 21:28:00,61.0,55.0,28.43,SW,225,0.0,1.0,81,0.00,,,0.00,meteohub,2013-07-30 01:28:00,
2013-07-29 21:33:00,60.6,55.0,28.43,SW,225,0.0,1.0,82,0.00,,,0.00,meteohub,2013-07-30 01:33:00,
2013-07-29 21:38:00,60.4,55.2,28.43,SW,225,0.0,1.0,83,0.00,,,0.00,meteohub,2013-07-30 01:38:00,
2013-07-29 21:43:00,60.3,55.0,28.43,SW,225,0.0,0.0,83,0.00,,,0.00,meteohub,2013-07-30 01:43:00,
2013-07-29 21:49:00,60.1,55.2,28.43,SW,225,0.0,0.0,84,0.00,,,0.00,meteohub,2013-07-30 01:49:00,
2013-07-29 21:54:00,59.9,55.0,28.43,North,0,2.0,0.0,84,0.00,,,0.00,meteohub,2013-07-30 01:54:00,
2013-07-29 21:59:00,59.7,54.9,28.44,NW,315,1.0,2.0,84,0.00,,,0.00,meteohub,2013-07-30 01:59:00,
2013-07-29 22:05:00,59.5,55.0,28.44,West,270,0.0,2.0,85,0.00,,,0.00,meteohub,2013-07-30 02:05:00,
2013-07-29 22:10:00,59.4,54.9,28.44,South,180,0.0,2.0,85,0.00,,,0.00,meteohub,2013-07-30 02:10:00,
2013-07-29 22:15:00,59.0,54.5,28.45,South,180,0.0,2.0,85,0.00,,,0.00,meteohub,2013-07-30 02:15:00,
2013-07-29 22:20:00,58.8,55.0,28.45,South,180,0.0,1.0,87,0.00,,,0.00,meteohub,2013-07-30 02:20:00,
2013-07-29 22:26:00,58.6,54.9,28.45,South,180,0.0,2.0,87,0.00,,,0.00,meteohub,2013-07-30 02:26:00,
2013-07-29 22:31:00,58.5,54.7,28.45,SW,225,1.0,2.0,87,0.00,,,0.00,meteohub,2013-07-30 02:31:00,
2013-07-29 22:37:00,58.3,54.7,28.45,South,180,0.0,2.0,88,0.00,,,0.00,meteohub,2013-07-30 02:37:00,
2013-07-29 22:42:00,58.1,54.5,28.45,NW,315,0.0,1.0,88,0.00,,,0.00,meteohub,2013-07-30 02:42:00,
2013-07-29 22:47:00,57.7,54.5,28.45,NE,45,0.0,1.0,89,0.00,,,0.00,meteohub,2013-07-30 02:47:00,
2013-07-29 22:53:00,57.6,54.3,28.45,West,270,0.0,1.0,89,0.00,,,0.00,meteohub,2013-07-30 02:53:00,
2013-07-29 22:58:00,57.4,54.1,28.45,SW,225,1.0,0.0,89,0.00,,,0.00,meteohub,2013-07-30 02:58:00,
2013-07-29 23:03:00,57.2,54.3,28.45,SW,225,0.0,2.0,90,0.00,,,0.00,meteohub,2013-07-30 03:03:00,
2013-07-29 23:09:00,57.0,54.5,28.45,NE,45,0.0,2.0,91,0.00,,,0.00,meteohub,2013-07-30 03:09:00,
2013-07-29 23:14:00,56.8,54.3,28.45,NE,45,0.0,2.0,91,0.00,,,0.00,meteohub,2013-07-30 03:14:00,
2013-07-29 23:19:00,56.7,54.3,28.45,NE,45,0.0,0.0,92,0.00,,,0.00,meteohub,2013-07-30 03:19:00,
2013-07-29 23:25:00,56.5,54.1,28.45,West,270,0.0,0.0,92,0.00,,,0.00,meteohub,2013-07-30 03:25:00,
2013-07-29 23:30:00,56.1,53.8,28.46,West,270,0.0,0.0,92,0.00,,,0.00,meteohub,2013-07-30 03:30:00,
2013-07-29 23:35:00,55.9,53.6,28.46,SE,135,0.0,0.0,92,0.00,,,0.00,meteohub,2013-07-30 03:35:00,
2013-07-29 23:40:00,55.9,53.6,28.45,SE,135,0.0,0.0,92,0.00,,,0.00,meteohub,2013-07-30 03:40:00,
2013-07-29 23:46:00,55.8,53.8,28.46,SE,135,0.0,0.0,93,0.00,,,0.00,meteohub,2013-07-30 03:46:00,
2013-07-29 23:51:00,55.6,53.6,28.45,SW,225,0.0,0.0,93,0.00,,,0.00,meteohub,2013-07-30 03:51:00,
2013-07-29 23:56:00,55.4,53.4,28.45,North,0,0.0,0.0,93,0.00,,,0.00,meteohub,2013-07-30 03:56:00,